TimeCDT,TemperatureF,Dew PointF,Humidity,Sea Level PressureIn,VisibilityMPH,Wind Direction,Wind SpeedMPH,Gust SpeedMPH,PrecipitationIn,Events,Conditions,WindDirDegrees,DateUTC
12:15 AM,30.2,26.6,86,30.00,10.0,SW,4.6,-,N/A,,Clear,230,2013-03-12 05:15:00
12:35 AM,30.2,26.6,86,30.02,10.0,SW,4.6,-,N/A,,Clear,230,2013-03-12 05:35:00
12:55 AM,32.0,24.8,75,30.02,10.0,WSW,4.6,-,N/A,,Clear,250,2013-03-12 05:55:00
1:15 AM,32.0,24.8,75,30.02,10.0,SW,3.5,-,N/A,,Clear,220,2013-03-12 06:15:00
1:35 AM,26.6,24.8,93,30.02,10.0,Calm,Calm,-,N/A,,Clear,0,2013-03-12 06:35:00
1:55 AM,30.2,24.8,80,30.02,10.0,SW,3.5,-,N/A,,Clear,230,2013-03-12 06:55:00
2:15 AM,30.2,23.0,75,30.02,10.0,SW,3.5,-,N/A,,Clear,220,2013-03-12 07:15:00
2:35 AM,30.2,23.0,75,30.04,10.0,SW,5.8,-,N/A,,Clear,220,2013-03-12 07:35:00
2:55 AM,30.2,23.0,75,30.03,10.0,SSW,5.8,-,N/A,,Clear,210,2013-03-12 07:55:00
3:15 AM,32.0,23.0,69,30.03,10.0,SW,5.8,-,N/A,,Clear,230,2013-03-12 08:15:00
3:55 AM,30.2,23.0,75,30.03,10.0,SW,4.6,-,N/A,,Clear,220,2013-03-12 08:55:00
4:15 AM,30.2,23.0,75,30.05,10.0,WSW,6.9,-,N/A,,Clear,240,2013-03-12 09:15:00
4:35 AM,30.2,23.0,75,30.06,10.0,SW,6.9,-,N/A,,Clear,230,2013-03-12 09:35:00
4:55 AM,30.2,23.0,75,30.06,10.0,SW,6.9,-,N/A,,Clear,230,2013-03-12 09:55:00
5:15 AM,30.2,23.0,75,30.07,10.0,SW,6.9,-,N/A,,Clear,230,2013-03-12 10:15:00
5:35 AM,30.2,23.0,75,30.07,10.0,WSW,5.8,-,N/A,,Clear,240,2013-03-12 10:35:00
5:55 AM,30.2,23.0,75,30.08,10.0,WSW,5.8,-,N/A,,Clear,240,2013-03-12 10:55:00
6:15 AM,30.2,23.0,75,30.08,10.0,WSW,4.6,-,N/A,,Clear,250,2013-03-12 11:15:00
6:35 AM,30.2,23.0,75,30.09,10.0,SW,5.8,-,N/A,,Clear,230,2013-03-12 11:35:00
6:55 AM,30.2,23.0,75,30.10,10.0,SW,5.8,-,N/A,,Clear,230,2013-03-12 11:55:00
7:15 AM,30.2,23.0,75,30.11,10.0,WSW,5.8,-,N/A,,Clear,250,2013-03-12 12:15:00
7:35 AM,30.2,23.0,75,30.11,10.0,WSW,5.8,-,N/A,,Clear,250,2013-03-12 12:35:00
7:55 AM,32.0,23.0,69,30.12,10.0,West,6.9,-,N/A,,Clear,260,2013-03-12 12:55:00
8:15 AM,32.0,23.0,69,30.10,10.0,WSW,4.6,-,N/A,,Clear,240,2013-03-12 13:15:00
8:35 AM,32.0,23.0,69,30.13,10.0,WSW,5.8,-,N/A,,Clear,240,2013-03-12 13:35:00
8:55 AM,32.0,23.0,69,30.14,10.0,WSW,6.9,-,N/A,,Clear,250,2013-03-12 13:55:00
9:15 AM,32.0,23.0,69,30.14,10.0,WSW,6.9,-,N/A,,Clear,250,2013-03-12 14:15:00
9:35 AM,32.0,23.0,69,30.14,10.0,WSW,6.9,-,N/A,,Clear,250,2013-03-12 14:35:00
9:55 AM,33.8,23.0,65,30.16,10.0,WSW,9.2,-,N/A,,Clear,250,2013-03-12 14:55:00
10:15 AM,33.8,23.0,65,30.17,10.0,WSW,8.1,-,N/A,,Clear,250,2013-03-12 15:15:00
10:35 AM,35.6,24.8,65,30.17,10.0,WSW,8.1,-,N/A,,Clear,240,2013-03-12 15:35:00
10:55 AM,37.4,26.6,65,30.17,10.0,WSW,9.2,-,N/A,,Clear,240,2013-03-12 15:55:00
11:15 AM,39.2,26.6,61,30.18,10.0,West,6.9,-,N/A,,Scattered Clouds,260,2013-03-12 16:15:00
11:35 AM,41.0,26.6,57,30.18,10.0,West,8.1,-,N/A,,Mostly Cloudy,270,2013-03-12 16:35:00
11:55 AM,42.8,26.6,53,30.18,10.0,WSW,5.8,-,N/A,,Scattered Clouds,250,2013-03-12 16:55:00
12:15 PM,44.6,26.6,49,30.17,10.0,West,10.4,16.1,N/A,,Scattered Clouds,270,2013-03-12 17:15:00
12:35 PM,44.6,23.0,43,30.17,10.0,WNW,11.5,17.3,N/A,,Mostly Cloudy,290,2013-03-12 17:35:00
12:55 PM,44.6,26.6,49,30.17,10.0,WNW,11.5,-,N/A,,Mostly Cloudy,300,2013-03-12 17:55:00
1:15 PM,46.4,24.8,43,30.17,10.0,West,18.4,25.3,N/A,,Scattered Clouds,270,2013-03-12 18:15:00
1:35 PM,46.4,23.0,40,30.16,10.0,West,17.3,26.5,N/A,,Mostly Cloudy,270,2013-03-12 18:35:00
1:55 PM,48.2,23.0,37,30.16,10.0,WSW,17.3,24.2,N/A,,Overcast,250,2013-03-12 18:55:00
2:15 PM,46.4,21.2,37,30.16,10.0,West,17.3,29.9,N/A,,Overcast,270,2013-03-12 19:15:00
2:35 PM,46.4,23.0,40,30.16,10.0,WSW,26.5,35.7,N/A,,Mostly Cloudy,250,2013-03-12 19:35:00
2:55 PM,46.4,24.8,43,30.15,10.0,West,24.2,33.4,N/A,,Mostly Cloudy,270,2013-03-12 19:55:00
3:15 PM,46.4,24.8,43,30.15,10.0,WSW,21.9,29.9,N/A,,Mostly Cloudy,250,2013-03-12 20:15:00
3:35 PM,46.4,24.8,43,30.15,10.0,West,23.0,28.8,N/A,,Overcast,270,2013-03-12 20:35:00
4:15 PM,46.4,24.8,43,30.14,10.0,West,21.9,29.9,N/A,,Overcast,270,2013-03-12 21:15:00
4:35 PM,46.4,24.8,43,30.15,10.0,West,20.7,33.4,N/A,,Overcast,260,2013-03-12 21:35:00
4:55 PM,46.4,24.8,43,30.14,10.0,West,20.7,36.8,N/A,,Overcast,270,2013-03-12 21:55:00
5:15 PM,46.4,23.0,40,30.15,10.0,West,20.7,28.8,N/A,,Mostly Cloudy,260,2013-03-12 22:15:00
5:35 PM,44.6,21.2,39,30.15,10.0,West,13.8,29.9,N/A,,Overcast,270,2013-03-12 22:35:00
5:55 PM,44.6,19.4,37,30.15,10.0,West,20.7,33.4,N/A,,Scattered Clouds,260,2013-03-12 22:55:00
6:15 PM,44.6,19.4,37,30.16,10.0,West,26.5,34.5,N/A,,Scattered Clouds,260,2013-03-12 23:15:00
6:35 PM,42.8,24.8,49,30.17,10.0,NNW,13.8,24.2,N/A,,Mostly Cloudy,330,2013-03-12 23:35:00
6:55 PM,41.0,24.8,53,30.18,10.0,NW,15.0,20.7,N/A,,Mostly Cloudy,310,2013-03-12 23:55:00
7:15 PM,41.0,26.6,57,30.19,10.0,NW,9.2,18.4,N/A,,Mostly Cloudy,310,2013-03-13 00:15:00
7:35 PM,39.2,23.0,52,30.20,10.0,WNW,11.5,16.1,N/A,,Scattered Clouds,300,2013-03-13 00:35:00
7:55 PM,39.2,23.0,52,30.21,10.0,WNW,10.4,17.3,N/A,,Clear,300,2013-03-13 00:55:00
8:15 PM,37.4,23.0,56,30.22,10.0,WNW,9.2,17.3,N/A,,Clear,290,2013-03-13 01:15:00
8:35 PM,37.4,23.0,56,30.22,10.0,WNW,9.2,-,N/A,,Clear,290,2013-03-13 01:35:00
8:55 PM,37.4,23.0,56,30.23,10.0,WNW,9.2,16.1,N/A,,Clear,290,2013-03-13 01:55:00
9:15 PM,35.6,24.8,65,30.24,10.0,WNW,12.7,17.3,N/A,,Clear,300,2013-03-13 02:15:00
9:35 PM,35.6,23.0,60,30.25,10.0,WNW,10.4,18.4,N/A,,Clear,300,2013-03-13 02:35:00
9:55 PM,35.6,23.0,60,30.26,10.0,WNW,12.7,18.4,N/A,,Clear,300,2013-03-13 02:55:00
10:15 PM,35.6,23.0,60,30.27,10.0,WNW,9.2,-,N/A,,Clear,300,2013-03-13 03:15:00
10:35 PM,33.8,23.0,65,30.27,10.0,NW,9.2,-,N/A,,Clear,310,2013-03-13 03:35:00
10:55 PM,33.8,24.8,70,30.28,10.0,WNW,11.5,-,N/A,,Clear,300,2013-03-13 03:55:00
11:15 PM,33.8,23.0,65,30.29,10.0,WNW,12.7,21.9,N/A,,Clear,290,2013-03-13 04:15:00
11:35 PM,33.8,23.0,65,30.29,10.0,West,11.5,17.3,N/A,,Clear,280,2013-03-13 04:35:00
11:55 PM,32.0,23.0,69,30.29,10.0,West,8.1,-,N/A,,Clear,280,2013-03-13 04:55:00